When you browse on this site, cookies collect data to enhance your experience and personalize the content and advertising you see.
Visit our Privacy Policy to learn more. By continuing to use the site, you agree to this use of cookies and data.
  • In Austria
  • List of Countries
  • For 7 days
  • Water Temperature
  • Satellite Maps
  • Weather Map
  • News
  • Weather Widgets
  • user-avatar
    Login

    Hourly Weather Ganja

    Today, 26 May, Sunday

    Time Temperature Precipitation Wind Pressure Humidity
    00:00 +21°C° 0 mm 3 mps 724 mmHg 60%
    01:00 +21°C° 0 mm 3 mps 724 mmHg 62%
    02:00 +20°C° 0 mm 3 mps 724 mmHg 63%
    03:00 +20°C° 0 mm 5 mps 723 mmHg 65%
    04:00 +21°C° 0 mm 4 mps 724 mmHg 65%
    05:00 +21°C° 0 mm 4 mps 724 mmHg 64%
    06:00 +21°C° 0 mm 3 mps 724 mmHg 64%
    07:00 +23°C° 0 mm 4 mps 724 mmHg 59%
    08:00 +25°C° 0 mm 4 mps 723 mmHg 54%
    09:00 +27°C° 0 mm 4 mps 723 mmHg 49%
    10:00 +27°C° 0.3 mm 4 mps 723 mmHg 46%
    11:00 +28°C° 0.3 mm 4 mps 723 mmHg 42%
    12:00 +29°C° 0.3 mm 3 mps 722 mmHg 38%
    13:00 +29°C° 0.5 mm 3 mps 722 mmHg 37%
    14:00 +29°C° 0.5 mm 2 mps 722 mmHg 36%
    15:00 +30°C° 0 mm 2 mps 722 mmHg 35%
    16:00 +29°C° 0.3 mm 2 mps 722 mmHg 39%
    17:00 +28°C° 0.3 mm 2 mps 722 mmHg 43%
    18:00 +27°C° 0.3 mm 1 mps 722 mmHg 47%
    19:00 +26°C° 0.4 mm 2 mps 723 mmHg 52%
    20:00 +24°C° 0.4 mm 3 mps 724 mmHg 57%
    21:00 +21°C° 0.4 mm 4 mps 724 mmHg 62%
    22:00 +20°C° 0 mm 4 mps 725 mmHg 61%
    23:00 +20°C° 0 mm 4 mps 725 mmHg 60%

    Tomorrow, 27 May, Monday

    Time Temperature Precipitation Wind Pressure Humidity
    00:00 +19°C° 0 mm 4 mps 725 mmHg 60%
    01:00 +19°C° 0 mm 4 mps 725 mmHg 60%
    02:00 +18°C° 0 mm 4 mps 725 mmHg 61%
    03:00 +18°C° 0 mm 4 mps 725 mmHg 62%
    04:00 +18°C° 0 mm 4 mps 726 mmHg 62%
    05:00 +19°C° 0 mm 4 mps 726 mmHg 62%
    06:00 +19°C° 0 mm 4 mps 726 mmHg 62%
    07:00 +20°C° 0 mm 4 mps 726 mmHg 57%
    08:00 +22°C° 0 mm 5 mps 726 mmHg 52%
    09:00 +23°C° 0 mm 5 mps 726 mmHg 47%
    10:00 +25°C° 0 mm 4 mps 726 mmHg 44%
    11:00 +26°C° 0 mm 4 mps 726 mmHg 42%
    12:00 +27°C° 0 mm 4 mps 726 mmHg 40%
    13:00 +27°C° 0 mm 3 mps 726 mmHg 39%
    14:00 +28°C° 0 mm 2 mps 726 mmHg 38%
    15:00 +28°C° 0 mm 1 mps 726 mmHg 37%
    16:00 +28°C° 0 mm 2 mps 726 mmHg 40%
    17:00 +27°C° 0 mm 2 mps 726 mmHg 43%
    18:00 +27°C° 0 mm 2 mps 727 mmHg 45%
    19:00 +26°C° 0 mm 2 mps 727 mmHg 48%
    20:00 +24°C° 0 mm 2 mps 728 mmHg 51%
    21:00 +22°C° 0 mm 3 mps 728 mmHg 54%
    22:00 +21°C° 0 mm 2 mps 728 mmHg 58%
    23:00 +21°C° 0 mm 2 mps 729 mmHg 62%

    Day after tomorrow, 28 May, Tuesday

    Time Temperature Precipitation Wind Pressure Humidity
    00:00 +20°C° 0 mm 2 mps 729 mmHg 66%
    01:00 +19°C° 0 mm 2 mps 729 mmHg 68%
    02:00 +20°C° 0 mm 1 mps 729 mmHg 71%
    03:00 +19°C° 0 mm 1 mps 729 mmHg 73%
    04:00 +20°C° 0 mm 1 mps 729 mmHg 73%
    05:00 +20°C° 0 mm 1 mps 729 mmHg 72%
    06:00 +20°C° 0 mm 1 mps 729 mmHg 71%
    07:00 +20°C° 0.1 mm 2 mps 729 mmHg 69%
    08:00 +20°C° 0.1 mm 2 mps 729 mmHg 66%
    09:00 +21°C° 0.1 mm 2 mps 729 mmHg 63%
    10:00 +23°C° 0.1 mm 2 mps 728 mmHg 61%
    11:00 +24°C° 0.1 mm 2 mps 728 mmHg 58%
    12:00 +24°C° 0.1 mm 3 mps 728 mmHg 56%
    13:00 +25°C° 0.1 mm 3 mps 728 mmHg 53%
    14:00 +26°C° 0.1 mm 3 mps 728 mmHg 51%
    15:00 +27°C° 0.1 mm 3 mps 728 mmHg 49%
    16:00 +26°C° 0.4 mm 3 mps 728 mmHg 50%
    17:00 +26°C° 0.4 mm 4 mps 728 mmHg 52%
    18:00 +26°C° 0.4 mm 4 mps 728 mmHg 54%
    19:00 +23°C° 0.3 mm 4 mps 728 mmHg 57%
    20:00 +22°C° 0.3 mm 4 mps 729 mmHg 60%
    21:00 +21°C° 0.3 mm 4 mps 729 mmHg 63%
    22:00 +20°C° 0.3 mm 3 mps 729 mmHg 66%
    23:00 +20°C° 0.3 mm 2 mps 729 mmHg 69%

    29 May, Wednesday

    Time Temperature Precipitation Wind Pressure Humidity
    00:00 +19°C° 0.3 mm 2 mps 729 mmHg 72%
    01:00 +20°C° 0.1 mm 1 mps 729 mmHg 74%
    02:00 +19°C° 0.1 mm 1 mps 729 mmHg 76%
    03:00 +19°C° 0.1 mm 1 mps 729 mmHg 78%
    04:00 +19°C° 0 mm 1 mps 729 mmHg 77%
    05:00 +19°C° 0 mm 1 mps 729 mmHg 75%
    06:00 +20°C° 0 mm 1 mps 729 mmHg 74%
    07:00 +21°C° 0 mm 1 mps 729 mmHg 69%
    08:00 +22°C° 0 mm 1 mps 729 mmHg 64%
    09:00 +23°C° 0 mm 2 mps 729 mmHg 60%
    10:00 +24°C° 0 mm 2 mps 728 mmHg 56%
    11:00 +25°C° 0 mm 2 mps 728 mmHg 53%
    12:00 +26°C° 0 mm 2 mps 728 mmHg 50%
    13:00 +26°C° 0 mm 2 mps 728 mmHg 48%
    14:00 +27°C° 0 mm 2 mps 727 mmHg 46%
    15:00 +28°C° 0 mm 3 mps 727 mmHg 44%
    16:00 +27°C° 0 mm 3 mps 727 mmHg 46%
    17:00 +27°C° 0 mm 3 mps 727 mmHg 47%
    18:00 +27°C° 0 mm 3 mps 727 mmHg 49%
    19:00 +25°C° 0 mm 3 mps 728 mmHg 52%
    20:00 +24°C° 0 mm 3 mps 728 mmHg 55%
    21:00 +23°C° 0 mm 2 mps 728 mmHg 58%
    22:00 +21°C° 0 mm 2 mps 728 mmHg 60%
    23:00 +21°C° 0 mm 2 mps 728 mmHg 63%

    30 May, Thursday

    Time Temperature Precipitation Wind Pressure Humidity
    00:00 +20°C° 0 mm 2 mps 728 mmHg 65%
    01:00 +19°C° 0 mm 2 mps 728 mmHg 68%
    02:00 +20°C° 0 mm 1 mps 728 mmHg 70%
    03:00 +19°C° 0 mm 1 mps 728 mmHg 73%
    04:00 +20°C° 0 mm 1 mps 728 mmHg 71%
    05:00 +20°C° 0 mm 1 mps 728 mmHg 69%
    06:00 +21°C° 0 mm 1 mps 728 mmHg 67%
    07:00 +22°C° 0 mm 1 mps 728 mmHg 64%
    08:00 +23°C° 0 mm 1 mps 727 mmHg 61%
    09:00 +24°C° 0 mm 1 mps 727 mmHg 58%
    10:00 +25°C° 0 mm 2 mps 727 mmHg 55%
    11:00 +26°C° 0 mm 2 mps 727 mmHg 51%
    12:00 +27°C° 0 mm 2 mps 726 mmHg 48%
    13:00 +28°C° 0 mm 3 mps 726 mmHg 45%
    14:00 +28°C° 0 mm 3 mps 726 mmHg 43%
    15:00 +29°C° 0 mm 3 mps 726 mmHg 41%
    16:00 +29°C° 0 mm 3 mps 726 mmHg 43%
    17:00 +28°C° 0 mm 3 mps 726 mmHg 44%
    18:00 +28°C° 0 mm 3 mps 726 mmHg 46%
    19:00 +26°C° 0 mm 3 mps 726 mmHg 49%
    20:00 +25°C° 0 mm 4 mps 727 mmHg 53%
    21:00 +22°C° 0 mm 4 mps 727 mmHg 57%
    22:00 +22°C° 0 mm 3 mps 727 mmHg 58%
    23:00 +21°C° 0 mm 3 mps 727 mmHg 60%

    31 May, Friday

    Time Temperature Precipitation Wind Pressure Humidity
    00:00 +20°C° 0 mm 2 mps 727 mmHg 61%
    01:00 +20°C° 0 mm 2 mps 727 mmHg 63%
    02:00 +20°C° 0 mm 1 mps 727 mmHg 64%
    03:00 +20°C° 0 mm 1 mps 727 mmHg 66%
    04:00 +20°C° 0 mm 1 mps 727 mmHg 64%
    05:00 +21°C° 0 mm 1 mps 727 mmHg 63%
    06:00 +21°C° 0 mm 1 mps 727 mmHg 61%
    07:00 +23°C° 0 mm 1 mps 727 mmHg 57%
    08:00 +24°C° 0 mm 1 mps 726 mmHg 53%
    09:00 +25°C° 0 mm 2 mps 726 mmHg 49%
    10:00 +26°C° 0 mm 2 mps 726 mmHg 46%
    11:00 +27°C° 0 mm 2 mps 725 mmHg 43%
    12:00 +28°C° 0 mm 3 mps 725 mmHg 40%
    13:00 +29°C° 0 mm 3 mps 724 mmHg 40%
    14:00 +29°C° 0 mm 3 mps 724 mmHg 39%
    15:00 +30°C° 0 mm 3 mps 724 mmHg 38%
    16:00 +29°C° 0 mm 3 mps 724 mmHg 40%
    17:00 +29°C° 0 mm 3 mps 724 mmHg 42%
    18:00 +29°C° 0 mm 3 mps 724 mmHg 44%
    19:00 +27°C° 0 mm 3 mps 724 mmHg 47%
    20:00 +26°C° 0 mm 2 mps 724 mmHg 50%
    21:00 +24°C° 0 mm 2 mps 725 mmHg 53%
    22:00 +24°C° 0 mm 2 mps 725 mmHg 55%
    23:00 +22°C° 0 mm 3 mps 725 mmHg 56%
    Show more